{"data":{"norad_id":45939,"intl_designator":"2020-051A","name":"ZIYUAN 3-03 (ZY 3-03)","alt_names":[],"object_type":"PAYLOAD","status":"ACTIVE","operator":null,"country":"PRC","launch_date":"2020-07-25","launch_site_code":"TAISC","launch_vehicle":null,"mission":null,"orbit_class":"UNKNOWN","rcs_meters":null,"size_class":null,"mass_kg":null,"dimensions":null,"purposes":[],"wikipedia_slug":null,"has_3d_model":false,"image_url":null,"decayed_at":null,"tle_current":{"epoch":"2026-05-25T03:57:01.288800Z","epoch_age_seconds":56867,"freshness":"FRESH","line1":"1 45939U 20051A   26145.16459825  .00002944  00000+0  13452-3 0  9992","line2":"2 45939  97.2841 213.6318 0005398  43.0947 317.0711 15.21314792323844","mean_motion":15.21314792,"eccentricity":0.0005398,"inclination_deg":97.2841,"raan_deg":213.6318,"arg_perigee_deg":43.0947,"mean_anomaly_deg":317.0711,"bstar":0.00013452,"rev_number":32384,"period_min":94.654966057807,"perigee_km":498.15990697908,"apogee_km":505.5875665705,"semimajor_km":6880.0107367748,"source":"CELESTRAK","updated_at":"2026-05-25T13:37:56.252868Z"}}}